| time (UTC) | temp C | wind direction | speed KPH | gust KPH | rain 1hr cm | rain 24hr cm | rain mn cm | humidity % | barometer mb |
| 20260504192503 | 27 | 202 | 12.9 | 22.5 | 0.00 | 0.00 | 0.00 | 57 | 1015.4 |
| 20260504192007 | 27 | 198 | 9.7 | 25.7 | 0.00 | 0.00 | 0.00 | 57 | 1015.4 |
| 20260504191527 | 27 | 186 | 14.5 | 25.7 | 0.00 | 0.00 | 0.00 | 57 | 1015.4 |
| 20260504191008 | 27 | 199 | 9.7 | 22.5 | 0.00 | 0.00 | 0.00 | 58 | 1015.5 |
| 20260504190506 | 27 | 236 | 9.7 | 22.5 | 0.00 | 0.00 | 0.00 | 58 | 1015.5 |
| 20260504190023 | 27 | 142 | 9.7 | 20.9 | 0.00 | 0.00 | 0.00 | 57 | 1015.4 |
| 20260504185507 | 27 | 194 | 12.9 | 25.7 | 0.00 | 0.00 | 0.00 | 57 | 1015.4 |
| 20260504185008 | 27 | 177 | 9.7 | 27.4 | 0.00 | 0.00 | 0.00 | 57 | 1015.6 |
| 20260504184503 | 27 | 219 | 14.5 | 27.4 | 0.00 | 0.00 | 0.00 | 56 | 1015.7 |
| 20260504184003 | 27 | 176 | 14.5 | 24.1 | 0.00 | 0.00 | 0.00 | 56 | 1015.8 |
| 20260504183504 | 27 | 219 | 11.3 | 22.5 | 0.00 | 0.00 | 0.00 | 56 | 1015.7 |
| 20260504183010 | 27 | 211 | 9.7 | 22.5 | 0.00 | 0.00 | 0.00 | 56 | 1015.7 |
| 20260504182503 | 27 | 194 | 9.7 | 20.9 | 0.00 | 0.00 | 0.00 | 57 | 1015.9 |
| 20260504182007 | 27 | 188 | 12.9 | 24.1 | 0.00 | 0.00 | 0.00 | 56 | 1015.9 |
| 20260504181517 | 27 | 220 | 12.9 | 24.1 | 0.00 | 0.00 | 0.00 | 56 | 1015.8 |
| 20260504181007 | 27 | 180 | 12.9 | 22.5 | 0.00 | 0.00 | 0.00 | 55 | 1015.9 |
| 20260504180507 | 27 | 220 | 12.9 | 25.7 | 0.00 | 0.00 | 0.00 | 55 | 1016.0 |
| 20260504180020 | 27 | 199 | 12.9 | 25.7 | 0.00 | 0.00 | 0.00 | 57 | 1016.1 |
| 20260504175507 | 27 | 210 | 9.7 | 25.7 | 0.00 | 0.00 | 0.00 | 58 | 1016.3 |
| 20260504175005 | 27 | 196 | 11.3 | 25.7 | 0.00 | 0.00 | 0.00 | 58 | 1016.3 |
| 20260504174523 | 27 | 187 | 14.5 | 24.1 | 0.00 | 0.00 | 0.00 | 57 | 1016.3 |
| 20260504174008 | 27 | 190 | 12.9 | 29.0 | 0.00 | 0.00 | 0.00 | 57 | 1016.4 |
| 20260504173509 | 27 | 163 | 14.5 | 29.0 | 0.00 | 0.00 | 0.00 | 56 | 1016.4 |
| 20260504173024 | 27 | 183 | 9.7 | 22.5 | 0.00 | 0.00 | 0.00 | 57 | 1016.6 |
| 20260504172503 | 27 | 205 | 11.3 | 27.4 | 0.00 | 0.00 | 0.00 | 57 | 1016.6 |
| 20260504172003 | 27 | 202 | 11.3 | 27.4 | 0.00 | 0.00 | 0.00 | 58 | 1016.6 |
| 20260504171510 | 27 | 198 | 11.3 | 25.7 | 0.00 | 0.00 | 0.00 | 56 | 1016.7 |
| 20260504171006 | 27 | 202 | 14.5 | 25.7 | 0.00 | 0.00 | 0.00 | 56 | 1016.9 |
| 20260504170504 | 27 | 178 | 12.9 | 24.1 | 0.00 | 0.00 | 0.00 | 56 | 1017.0 |
| 20260504151010 | 25 | 223 | 11.3 | 29.0 | 0.00 | 0.00 | 0.00 | 58 | 1017.4 |
| 20260504150511 | 25 | 202 | 9.7 | 29.0 | 0.00 | 0.00 | 0.00 | 58 | 1017.3 |
| 20260504141006 | 25 | 182 | 8.0 | 20.9 | 0.00 | 0.00 | 0.00 | 60 | 1017.1 |
| 20260504140503 | 25 | 188 | 14.5 | 20.9 | 0.00 | 0.00 | 0.00 | 60 | 1017.2 |
| 20260504130506 | 23 | 182 | 11.3 | 20.9 | 0.00 | 0.00 | 0.00 | 65 | 1017.0 |
| 20260504110506 | 21 | 207 | 6.4 | 16.1 | 0.00 | 0.00 | 0.00 | 55 | 1016.5 |
| 20260504100505 | 21 | 130 | 6.4 | 16.1 | 0.00 | 0.00 | 0.00 | 54 | 1016.9 |
| 20260504082007 | 21 | 158 | 4.8 | 16.1 | 0.00 | 0.00 | 0.00 | 54 | 1017.5 |
| 20260504081508 | 21 | 157 | 8.0 | 16.1 | 0.00 | 0.00 | 0.00 | 55 | 1017.3 |
| 20260504081006 | 21 | 138 | 8.0 | 19.3 | 0.00 | 0.00 | 0.00 | 54 | 1017.3 |
| 20260504080505 | 21 | 170 | 4.8 | 19.3 | 0.00 | 0.00 | 0.00 | 54 | 1017.5 |
| 20260504050503 | 21 | 157 | 8.0 | 17.7 | 0.00 | 0.00 | 0.00 | 53 | 1019.3 |
| 20260504050007 | 21 | 167 | 4.8 | 14.5 | 0.00 | 0.00 | 0.00 | 52 | 1019.5 |
| 20260504045503 | 21 | 208 | 6.4 | 14.5 | 0.00 | 0.00 | 0.00 | 52 | 1019.5 |
| 20260504045006 | 21 | 171 | 4.8 | 14.5 | 0.00 | 0.00 | 0.00 | 53 | 1019.6 |
| 20260504044510 | 21 | 140 | 6.4 | 14.5 | 0.00 | 0.00 | 0.00 | 52 | 1019.7 |
| 20260504044007 | 21 | 134 | 4.8 | 12.9 | 0.00 | 0.00 | 0.00 | 53 | 1019.6 |
| 20260504043504 | 21 | 144 | 4.8 | 14.5 | 0.00 | 0.00 | 0.00 | 52 | 1019.5 |
| 20260504043013 | 21 | 138 | 4.8 | 14.5 | 0.00 | 0.00 | 0.00 | 52 | 1019.6 |
| 20260504042508 | 21 | 172 | 6.4 | 14.5 | 0.00 | 0.00 | 0.00 | 52 | 1019.4 |
| 20260504042007 | 21 | 132 | 4.8 | 16.1 | 0.00 | 0.00 | 0.00 | 51 | 1019.3 |
| 20260504041518 | 21 | 171 | 6.4 | 16.1 | 0.00 | 0.00 | 0.00 | 52 | 1019.5 |
| 20260504041007 | 21 | 167 | 6.4 | 14.5 | 0.00 | 0.00 | 0.00 | 52 | 1019.5 |
| 20260504040502 | 21 | 148 | 3.2 | 14.5 | 0.00 | 0.00 | 0.00 | 52 | 1019.5 |
| 20260504040011 | 21 | 178 | 6.4 | 14.5 | 0.00 | 0.00 | 0.00 | 52 | 1019.6 |
| 20260504035506 | 21 | 136 | 6.4 | 12.9 | 0.00 | 0.00 | 0.00 | 51 | 1019.6 |
| 20260504035008 | 21 | 170 | 4.8 | 12.9 | 0.00 | 0.00 | 0.00 | 52 | 1019.5 |
| 20260504034508 | 21 | 144 | 4.8 | 12.9 | 0.00 | 0.00 | 0.00 | 51 | 1019.5 |
| 20260504034004 | 21 | 111 | 4.8 | 12.9 | 0.00 | 0.00 | 0.00 | 51 | 1019.5 |
| 20260504033504 | 21 | 158 | 4.8 | 12.9 | 0.00 | 0.00 | 0.00 | 50 | 1019.5 |
| 20260504033010 | 21 | 145 | 3.2 | 12.9 | 0.00 | 0.00 | 0.00 | 51 | 1019.5 |
| 20260504032504 | 21 | 164 | 4.8 | 12.9 | 0.00 | 0.00 | 0.00 | 51 | 1019.4 |
| 20260504032003 | 21 | 134 | 3.2 | 11.3 | 0.00 | 0.00 | 0.00 | 50 | 1019.4 |
| 20260504031516 | 21 | 136 | 3.2 | 11.3 | 0.00 | 0.00 | 0.00 | 51 | 1019.4 |
| 20260504031006 | 21 | 151 | 4.8 | 11.3 | 0.00 | 0.00 | 0.00 | 49 | 1019.4 |
| 20260504030506 | 21 | 160 | 3.2 | 11.3 | 0.00 | 0.00 | 0.00 | 51 | 1019.5 |
| 20260504030020 | 21 | 150 | 3.2 | 11.3 | 0.00 | 0.00 | 0.00 | 51 | 1019.5 |
| 20260504025508 | 21 | 136 | 4.8 | 11.3 | 0.00 | 0.00 | 0.00 | 51 | 1019.5 |
| 20260504025006 | 21 | 128 | 3.2 | 12.9 | 0.00 | 0.00 | 0.00 | 50 | 1019.5 |
| 20260504024504 | 21 | 136 | 6.4 | 12.9 | 0.00 | 0.00 | 0.00 | 50 | 1019.5 |
| 20260504024004 | 21 | 108 | 4.8 | 11.3 | 0.00 | 0.00 | 0.00 | 49 | 1019.5 |
| 20260504023502 | 21 | 168 | 3.2 | 11.3 | 0.00 | 0.00 | 0.00 | 50 | 1019.4 |
| 20260504023010 | 21 | 143 | 3.2 | 11.3 | 0.00 | 0.00 | 0.00 | 49 | 1019.4 |
| 20260504022504 | 21 | 159 | 6.4 | 11.3 | 0.00 | 0.00 | 0.00 | 49 | 1019.3 |
| 20260504022004 | 21 | 146 | 3.2 | 9.7 | 0.00 | 0.00 | 0.00 | 50 | 1019.3 |
| 20260504021511 | 21 | 117 | 1.6 | 14.5 | 0.00 | 0.00 | 0.00 | 50 | 1019.4 |
| 20260504021003 | 21 | 188 | 3.2 | 16.1 | 0.00 | 0.00 | 0.00 | 49 | 1019.4 |
| 20260504020503 | 21 | 181 | 8.0 | 16.1 | 0.00 | 0.00 | 0.00 | 49 | 1019.4 |
| 20260504020016 | 21 | 157 | 6.4 | 12.9 | 0.00 | 0.00 | 0.00 | 49 | 1019.4 |
| 20260504015506 | 22 | 182 | 6.4 | 12.9 | 0.00 | 0.00 | 0.00 | 49 | 1019.4 |
| 20260504015009 | 22 | 182 | 6.4 | 11.3 | 0.00 | 0.00 | 0.00 | 50 | 1019.6 |
| 20260504014526 | 22 | 150 | 4.8 | 11.3 | 0.00 | 0.00 | 0.00 | 49 | 1019.6 |
| 20260504014005 | 22 | 171 | 4.8 | 9.7 | 0.00 | 0.00 | 0.00 | 49 | 1019.5 |
| 20260504013502 | 22 | 171 | 4.8 | 12.9 | 0.00 | 0.00 | 0.00 | 48 | 1019.3 |
| 20260504013005 | 22 | 167 | 4.8 | 14.5 | 0.00 | 0.00 | 0.00 | 48 | 1019.4 |
| 20260504012505 | 22 | 209 | 4.8 | 14.5 | 0.00 | 0.00 | 0.00 | 49 | 1019.4 |
| 20260504012003 | 22 | 148 | 6.4 | 11.3 | 0.00 | 0.00 | 0.00 | 48 | 1019.4 |
| 20260504011510 | 22 | 192 | 4.8 | 11.3 | 0.00 | 0.00 | 0.00 | 47 | 1019.5 |
| 20260504011004 | 22 | 177 | 4.8 | 11.3 | 0.00 | 0.00 | 0.00 | 47 | 1019.3 |
| 20260504010504 | 22 | 163 | 3.2 | 12.9 | 0.00 | 0.00 | 0.00 | 48 | 1019.4 |
| 20260504010015 | 22 | 211 | 4.8 | 12.9 | 0.00 | 0.00 | 0.00 | 47 | 1019.3 |
| 20260504005505 | 22 | 139 | 3.2 | 11.3 | 0.00 | 0.00 | 0.00 | 47 | 1019.3 |
| 20260504005006 | 22 | 178 | 4.8 | 11.3 | 0.00 | 0.00 | 0.00 | 49 | 1019.4 |
| 20260504004526 | 22 | 174 | 1.6 | 11.3 | 0.00 | 0.00 | 0.00 | 48 | 1019.4 |
| 20260504004006 | 22 | 169 | 4.8 | 12.9 | 0.00 | 0.00 | 0.00 | 46 | 1019.3 |
| 20260504003508 | 22 | 131 | 3.2 | 12.9 | 0.00 | 0.00 | 0.00 | 45 | 1019.3 |
| 20260504003023 | 23 | 115 | 1.6 | 12.9 | 0.00 | 0.00 | 0.00 | 46 | 1019.3 |
| 20260504002507 | 23 | 188 | 3.2 | 12.9 | 0.00 | 0.00 | 0.00 | 47 | 1019.3 |
| 20260504002010 | 23 | 172 | 4.8 | 14.5 | 0.00 | 0.00 | 0.00 | 45 | 1019.4 |
| 20260504001507 | 23 | 178 | 4.8 | 14.5 | 0.00 | 0.00 | 0.00 | 44 | 1019.4 |
| 20260504001003 | 23 | 202 | 6.4 | 14.5 | 0.00 | 0.00 | 0.00 | 43 | 1019.4 |
| 20260504000502 | 23 | 178 | 6.4 | 14.5 | 0.00 | 0.00 | 0.00 | 44 | 1019.3 |
| 20260504000012 | 24 | 178 | 4.8 | 12.9 | 0.00 | 0.00 | 0.00 | 44 | 1019.5 |
| 20260503235504 | 24 | 130 | 3.2 | 12.9 | 0.00 | 0.00 | 0.00 | 43 | 1019.6 |
| 20260503235006 | 24 | 171 | 1.6 | 11.3 | 0.00 | 0.00 | 0.00 | 42 | 1019.7 |
| 20260503234518 | 25 | 164 | 3.2 | 11.3 | 0.00 | 0.00 | 0.00 | 42 | 1019.7 |
| 20260503234006 | 25 | 169 | 4.8 | 14.5 | 0.00 | 0.00 | 0.00 | 41 | 1019.6 |
| 20260503233508 | 25 | 192 | 6.4 | 14.5 | 0.00 | 0.00 | 0.00 | 42 | 1019.7 |
| 20260503233021 | 25 | 159 | 1.6 | 12.9 | 0.00 | 0.00 | 0.00 | 41 | 1019.6 |
| 20260503232508 | 25 | 159 | 3.2 | 14.5 | 0.00 | 0.00 | 0.00 | 41 | 1019.7 |
| 20260503232007 | 25 | 160 | 6.4 | 14.5 | 0.00 | 0.00 | 0.00 | 41 | 1019.8 |
| 20260503231524 | 25 | 184 | 6.4 | 14.5 | 0.00 | 0.00 | 0.00 | 42 | 1019.9 |
| 20260503231007 | 25 | 184 | 4.8 | 16.1 | 0.00 | 0.00 | 0.00 | 43 | 1020.0 |
| 20260503230508 | 25 | 128 | 6.4 | 16.1 | 0.00 | 0.00 | 0.00 | 42 | 1020.0 |
| 20260503230009 | 25 | 148 | 6.4 | 14.5 | 0.00 | 0.00 | 0.00 | 41 | 1019.9 |
| 20260503225503 | 25 | 203 | 6.4 | 14.5 | 0.00 | 0.00 | 0.00 | 41 | 1020.1 |
| 20260503225007 | 25 | 136 | 4.8 | 16.1 | 0.00 | 0.00 | 0.00 | 41 | 1020.2 |
| 20260503224514 | 25 | 181 | 6.4 | 16.1 | 0.00 | 0.00 | 0.00 | 41 | 1020.3 |
| 20260503224004 | 25 | 196 | 6.4 | 17.7 | 0.00 | 0.00 | 0.00 | 41 | 1020.3 |
| 20260503223509 | 25 | 188 | 8.0 | 17.7 | 0.00 | 0.00 | 0.00 | 40 | 1020.4 |
| 20260503223019 | 25 | 178 | 8.0 | 14.5 | 0.00 | 0.00 | 0.00 | 39 | 1020.2 |
| 20260503222507 | 25 | 202 | 8.0 | 16.1 | 0.00 | 0.00 | 0.00 | 40 | 1020.3 |
| 20260503222009 | 25 | 138 | 4.8 | 16.1 | 0.00 | 0.00 | 0.00 | 40 | 1020.2 |
| 20260503221523 | 25 | 170 | 8.0 | 17.7 | 0.00 | 0.00 | 0.00 | 40 | 1020.2 |
| 20260503221009 | 25 | 115 | 4.8 | 17.7 | 0.00 | 0.00 | 0.00 | 41 | 1020.3 |
| 20260503220507 | 26 | 158 | 8.0 | 17.7 | 0.00 | 0.00 | 0.00 | 40 | 1020.4 |
| 20260503220026 | 25 | 169 | 6.4 | 16.1 | 0.00 | 0.00 | 0.00 | 41 | 1020.5 |
| 20260503215508 | 25 | 139 | 4.8 | 16.1 | 0.00 | 0.00 | 0.00 | 40 | 1020.5 |
| 20260503215010 | 25 | 184 | 9.7 | 16.1 | 0.00 | 0.00 | 0.00 | 41 | 1020.6 |
| 20260503214511 | 25 | 133 | 6.4 | 16.1 | 0.00 | 0.00 | 0.00 | 42 | 1020.5 |
| 20260503214003 | 25 | 188 | 9.7 | 16.1 | 0.00 | 0.00 | 0.00 | 42 | 1020.6 |
| 20260503213511 | 25 | 121 | 9.7 | 19.3 | 0.00 | 0.00 | 0.00 | 42 | 1020.6 |
| 20260503213019 | 25 | 175 | 9.7 | 19.3 | 0.00 | 0.00 | 0.00 | 41 | 1020.6 |
| 20260503212508 | 26 | 159 | 6.4 | 17.7 | 0.00 | 0.00 | 0.00 | 39 | 1020.8 |
| 20260503212008 | 26 | 157 | 4.8 | 16.1 | 0.00 | 0.00 | 0.00 | 39 | 1020.9 |
| 20260503211521 | 26 | 125 | 6.4 | 16.1 | 0.00 | 0.00 | 0.00 | 40 | 1020.9 |
| 20260503211011 | 26 | 199 | 8.0 | 16.1 | 0.00 | 0.00 | 0.00 | 39 | 1021.0 |
| 20260503210507 | 26 | 184 | 8.0 | 17.7 | 0.00 | 0.00 | 0.00 | 40 | 1021.0 |
| 20260503210025 | 26 | 152 | 8.0 | 17.7 | 0.00 | 0.00 | 0.00 | 39 | 1021.1 |
| 20260503205510 | 26 | 171 | 6.4 | 14.5 | 0.00 | 0.00 | 0.00 | 39 | 1021.1 |
| 20260503205007 | 26 | 185 | 6.4 | 16.1 | 0.00 | 0.00 | 0.00 | 39 | 1021.2 |
| 20260503204505 | 25 | 207 | 8.0 | 16.1 | 0.00 | 0.00 | 0.00 | 39 | 1021.2 |
| 20260503204004 | 25 | 165 | 8.0 | 16.1 | 0.00 | 0.00 | 0.00 | 39 | 1021.3 |
| 20260503203503 | 25 | 133 | 8.0 | 16.1 | 0.00 | 0.00 | 0.00 | 41 | 1021.5 |
| 20260503203005 | 25 | 122 | 8.0 | 16.1 | 0.00 | 0.00 | 0.00 | 40 | 1021.7 |
| 20260503202503 | 25 | 131 | 8.0 | 17.7 | 0.00 | 0.00 | 0.00 | 40 | 1021.7 |
| 20260503202003 | 25 | 115 | 11.3 | 17.7 | 0.00 | 0.00 | 0.00 | 39 | 1021.7 |
| 20260503201503 | 25 | 142 | 6.4 | 17.7 | 0.00 | 0.00 | 0.00 | 41 | 1021.9 |
| 20260503201003 | 25 | 171 | 4.8 | 19.3 | 0.00 | 0.00 | 0.00 | 41 | 1021.9 |
| 20260503200503 | 25 | 150 | 8.0 | 19.3 | 0.00 | 0.00 | 0.00 | 39 | 1022.0 |
| 20260503200008 | 25 | 165 | 8.0 | 17.7 | 0.00 | 0.00 | 0.00 | 38 | 1022.0 |
| 20260503195502 | 25 | 109 | 9.7 | 19.3 | 0.00 | 0.00 | 0.00 | 39 | 1022.0 |
| 20260503195002 | 25 | 152 | 12.9 | 19.3 | 0.00 | 0.00 | 0.00 | 36 | 1022.0 |
| 20260503194505 | 25 | 121 | 8.0 | 16.1 | 0.00 | 0.00 | 0.00 | 38 | 1022.1 |
| 20260503194003 | 25 | 124 | 9.7 | 16.1 | 0.00 | 0.00 | 0.00 | 37 | 1022.3 |
| 20260503193503 | 25 | 171 | 8.0 | 20.9 | 0.00 | 0.00 | 0.00 | 39 | 1022.3 |
| 20260503193006 | 25 | 146 | 9.7 | 22.5 | 0.00 | 0.00 | 0.00 | 39 | 1022.4 |